Weather History for Peachtree City, GA

Change the Weather History Date:

Sunday, October 7, 2012

  Actual Average Record
Temperature  
Mean Temperature 62 °F 64 °F  
Max Temperature 70 °F 77 °F 84 °F (1997)
Min Temperature 53 °F 52 °F 39 °F (2001)
Degree Days  
Heating Degree Days 4 3  
Month to date heating degree days 16  
Since 1 July heating degree days 29  
Cooling Degree Days 0 2  
Month to date cooling degree days 18  
Year to date cooling degree days 1626  
Growing Degree Days 12 (Base 50)    
Moisture  
Dew Point 50 °F    
Average Humidity 71    
Maximum Humidity 86    
Minimum Humidity 54    
Precipitation  
Precipitation 0.00 in 0.13 in 0.86 in (2005)
Month to date precipitation 0.95  
Year to date precipitation 39.52  
Sea Level Pressure  
Sea Level Pressure 30.06 in    
Wind  
Wind Speed 6 mph (NW)    
Max Wind Speed 14 mph    
Max Gust Speed 21 mph    
Visibility 10 miles    
Events      
T = Trace of Precipitation, MM = Missing Value Source: NWS Daily Summary

Daily Weather History Graph

Daily Weather History Graph

Search for Another Location

Airport:

Trip Planner

Search our weather history database for the weather conditions in past years. The results will help you decide how hot, cold, wet, or windy it might be!

Date:

Astronomy

Oct. 07, 2012 Rise Set
Actual Time 7:37 AM EDT 7:14 PM EDT
Civil Twilight 7:12 AM EDT 7:38 PM EDT
Nautical Twilight 6:43 AM EDT 8:07 PM EDT
Astronomical Twilight 6:14 AM EDT 8:36 PM EDT
Moon No Moon Rise 2:01 PM EDT (10/7)
Length of Visible Light 12h 26m
Length of Day
11h 36m
Waning Gibbous, 56% of the Moon is Illuminated
Oct 7
Waning Gibbous
Oct 8
Last Quarter
Oct 15
New
Oct 21
First Quarter
Oct 29
Full

Hourly Weather History & Observations

Time (EDT) Temp. Dew Point Humidity Pressure Visibility Wind Dir Wind Speed Gust Speed Precip Events Conditions
1:53 AM 60.1 °F 55.0 °F 83% 30.01 in 10.0 mi NW 4.6 mph - N/A   Clear
2:53 AM 59.0 °F 54.0 °F 83% 30.01 in 10.0 mi WNW 8.1 mph - N/A   Clear
3:53 AM 57.0 °F 52.0 °F 83% 30.01 in 10.0 mi WNW 4.6 mph - N/A   Clear
4:53 AM 55.9 °F 51.1 °F 84% 30.01 in 10.0 mi Calm Calm - N/A   Clear
5:53 AM 55.0 °F 50.0 °F 83% 30.00 in 10.0 mi NW 3.5 mph - N/A   Clear
6:53 AM 55.0 °F 50.0 °F 83% 30.03 in 10.0 mi WNW 4.6 mph - N/A   Clear
7:53 AM 54.0 °F 50.0 °F 86% 30.03 in 10.0 mi WNW 4.6 mph - N/A   Partly Cloudy
8:53 AM 55.0 °F 50.0 °F 83% 30.05 in 10.0 mi WNW 4.6 mph - N/A   Clear
9:53 AM 57.9 °F 50.0 °F 75% 30.07 in 10.0 mi NW 9.2 mph - N/A   Clear
10:53 AM 60.1 °F 51.1 °F 72% 30.09 in 10.0 mi NW 10.4 mph - N/A   Partly Cloudy
11:53 AM 64.0 °F 52.0 °F 65% 30.08 in 10.0 mi NNW 6.9 mph - N/A   Clear
12:53 PM 64.9 °F 53.1 °F 65% 30.08 in 10.0 mi WNW 8.1 mph - N/A   Clear
1:53 PM 68.0 °F 53.1 °F 59% 30.06 in 10.0 mi NW 12.7 mph - N/A   Clear
2:53 PM 69.1 °F 52.0 °F 54% 30.04 in 10.0 mi NNW 11.5 mph 20.7 mph N/A   Clear
3:39 PM 68.0 °F 51.8 °F 56% 30.05 in 10.0 mi NNW 13.8 mph 19.6 mph N/A   Clear
3:53 PM 66.9 °F 50.0 °F 54% 30.05 in 10.0 mi Variable 6.9 mph - N/A   Clear
4:53 PM 64.9 °F 48.9 °F 56% 30.06 in 10.0 mi NW 6.9 mph 17.3 mph N/A   Clear
5:53 PM 64.0 °F 48.0 °F 56% 30.07 in 10.0 mi NW 9.2 mph - N/A   Clear
6:53 PM 60.1 °F 48.0 °F 64% 30.07 in 10.0 mi NNW 4.6 mph - N/A   Clear
7:53 PM 57.0 °F 48.9 °F 74% 30.09 in 10.0 mi WNW 3.5 mph - N/A   Clear
8:53 PM 55.9 °F 46.9 °F 72% 30.10 in 10.0 mi NW 4.6 mph - N/A   Clear
9:53 PM 55.0 °F 46.9 °F 74% 30.11 in 10.0 mi WNW 4.6 mph - N/A   Clear
10:53 PM 54.0 °F 46.0 °F 75% 30.11 in 10.0 mi WNW 4.6 mph - N/A   Clear
11:53 PM 53.1 °F 45.0 °F 74% 30.10 in 10.0 mi Calm Calm - N/A   Clear